Wind_Speed
4 3 2 1 1 2 3 2 1 2 3 3 4 4 4 5 6 7 7 8 9 9 9 10 10 11 11 11 11 12 12 11 10 10 10 10 11 10 10 10 11 11 12 13 13 12 12 12 12 12 11 9 8 8 8 7 7 7 7 8 8 8 7 6 6 5 4 4 2 1 1 1 1 1 1 1 3 3 5 7 7 8 10 11 9
5 4 3 3 2 2 3 2 2 2 3 4 4 4 4 5 6 6 6 6 7 7 8 8 9 9 9 10 9 10 11 11 10 9 9 10 10 10 9 9 10 10 11 11 11 12 12 12 11 11 10 9 8 8 8 7 6 6 7 8 8 7 6 6 6 5 4 3 3 2 2 1 1 1 1 1 2 3 5 6 5 6 8 9 9
6 5 5 4 3 2 3 3 2 3 3 4 4 5 5 5 6 6 5 5 5 6 6 7 8 7 8 8 8 8 9 10 10 9 8 9 9 9 9 9 9 9 10 10 10 11 11 11 10 10 9 8 8 7 7 7 7 7 7 8 7 6 6 6 5 4 4 3 3 2 2 1 0 2 1 1 2 3 4 4 5 7 8 9 11
8 6 6 5 4 3 2 3 3 3 3 4 5 5 5 6 6 6 6 6 5 5 5 6 7 7 7 7 7 8 8 9 10 9 8 9 9 9 9 9 9 9 9 9 9 10 10 10 9 9 8 8 8 8 8 8 8 8 8 8 7 6 5 5 4 3 3 3 3 2 1 1 0 1 1 2 2 3 2 2 3 6 7 9 10
8 8 7 6 4 4 3 3 3 3 3 4 5 5 6 6 7 7 6 6 6 6 6 6 7 7 6 6 7 8 9 10 10 9 9 10 9 9 9 9 9 9 8 8 9 9 9 8 8 8 7 7 7 8 8 8 7 7 7 7 7 6 5 5 4 3 3 3 2 2 0 0 1 1 2 2 3 2 2 3 3 4 6 8 9
8 8 8 7 5 5 5 4 4 4 4 4 5 6 6 6 7 7 7 7 6 6 6 6 7 7 6 6 7 8 9 10 10 10 10 10 10 10 10 9 9 9 8 8 8 8 8 8 7 7 7 7 7 7 8 8 7 7 6 6 6 6 6 5 5 4 3 3 2 2 2 2 1 1 1 2 2 2 3 3 3 3 4 7 8
9 8 8 8 7 6 6 6 6 5 5 5 5 6 6 6 6 7 7 7 7 6 6 6 7 7 7 7 7 7 8 10 10 11 10 10 9 9 9 9 9 8 8 8 7 7 8 7 7 7 8 8 7 8 8 9 8 8 7 6 6 6 5 5 5 4 3 3 4 3 3 3 2 1 1 1 1 1 2 3 3 3 4 6 7
11 9 9 10 9 7 7 7 7 6 6 6 6 6 6 6 6 7 8 8 7 7 7 7 6 7 7 8 8 8 8 9 10 10 10 9 9 9 9 9 9 8 8 8 8 7 8 8 7 7 8 8 8 8 9 9 9 8 8 7 6 6 5 5 5 4 4 5 5 4 3 3 3 2 0 1 1 1 1 2 2 3 4 5 6
13 11 11 12 11 10 9 8 7 6 7 7 6 7 7 7 7 7 8 8 8 8 8 7 6 6 7 8 9 9 9 8 9 9 9 9 9 9 9 9 9 8 8 9 8 8 8 8 7 7 8 8 8 8 8 8 9 8 7 7 6 6 6 6 6 5 5 5 5 4 3 3 3 2 1 1 2 1 2 2 2 3 3 4 5
16 12 11 12 12 11 10 8 7 7 7 7 7 7 8 8 8 7 8 9 9 8 8 7 6 6 6 7 8 9 9 9 8 8 8 8 8 9 9 9 8 8 8 9 9 8 8 8 7 7 7 8 7 7 7 8 8 8 8 7 7 6 6 6 5 5 5 5 5 4 3 2 3 2 2 2 2 2 2 2 3 4 4 4 4
18 15 13 12 13 12 11 9 8 7 7 8 7 8 9 9 9 8 8 9 10 9 9 8 7 7 6 7 8 9 9 9 9 8 8 8 8 8 9 8 8 8 9 8 9 9 8 8 8 7 7 7 7 7 7 7 7 7 7 6 6 6 6 5 5 5 5 5 4 4 3 3 3 3 3 2 2 2 2 3 4 5 5 4 4
19 18 16 14 12 12 11 10 9 7 7 8 8 8 9 10 9 9 9 9 10 10 10 9 9 8 7 7 8 9 9 9 9 9 9 9 9 9 9 8 9 9 9 9 8 8 8 8 8 7 7 7 6 6 6 6 6 6 6 6 6 5 5 6 5 5 5 4 4 4 4 4 3 3 3 2 2 2 3 4 4 5 6 5 4
20 20 19 16 13 12 12 12 11 9 8 9 8 8 10 11 11 10 10 10 10 11 11 10 10 9 8 8 8 9 9 9 10 10 10 9 9 9 9 9 9 9 9 9 9 8 8 8 8 7 7 7 6 6 5 6 6 6 6 6 6 6 5 5 5 4 4 4 4 4 4 4 4 4 3 3 3 3 3 4 4 5 6 6 5
22 21 21 19 16 15 15 14 12 11 9 10 9 8 10 11 12 11 10 10 11 11 11 12 11 11 10 9 9 9 9 9 10 10 10 10 10 10 9 9 9 9 9 9 9 9 9 8 8 7 7 6 6 6 6 6 5 5 5 5 5 5 4 4 3 3 3 4 3 4 4 5 4 3 4 4 4 4 4 4 3 4 6 6 6
24 22 21 21 19 17 16 14 13 12 10 10 10 9 10 12 13 12 11 11 11 11 12 13 13 12 11 10 10 10 10 9 10 10 10 10 10 9 9 9 9 9 9 8 9 9 9 8 8 8 7 6 6 6 5 5 5 5 4 4 3 3 3 2 3 3 3 3 3 4 4 4 3 2 3 4 5 5 5 4 3 2 3 4 6
25 24 22 22 21 19 18 15 15 14 12 11 12 11 11 13 13 13 12 11 11 11 12 13 13 13 12 11 11 10 10 10 10 10 10 10 10 9 8 8 8 8 8 7 8 8 8 8 8 7 7 6 6 5 5 4 4 4 3 2 2 2 2 2 2 2 3 4 4 5 5 5 4 3 4 4 5 6 6 5 4 2 1 1 4
25 26 24 23 22 21 19 17 16 15 14 13 14 13 12 13 14 14 14 13 12 12 12 13 13 13 13 13 12 11 10 10 10 10 10 10 9 9 8 8 7 7 7 7 7 7 7 7 7 7 7 6 5 5 4 3 3 3 3 2 2 3 3 3 3 3 4 5 5 5 6 6 5 5 6 6 7 8 7 6 7 7 6 5 5
23 28 26 24 24 24 21 19 18 17 16 16 16 15 14 14 15 15 15 15 14 13 13 13 13 13 14 14 13 12 12 11 11 10 10 10 10 9 8 8 8 7 7 7 7 7 7 7 7 7 6 6 6 5 4 3 3 3 3 3 3 3 3 3 4 4 4 5 6 6 6 6 6 6 7 8 8 9 8 8 8 9 9 9 8
22 27 27 26 27 26 23 20 19 19 18 17 18 17 15 14 15 16 16 16 15 14 13 13 14 14 14 13 13 13 12 12 12 11 10 10 10 9 9 9 8 8 8 8 7 7 7 7 7 7 6 6 6 5 5 5 5 5 4 3 3 4 4 4 4 4 4 5 6 6 5 5 5 6 7 8 8 8 8 8 9 9 9 10 9
20 24 27 28 29 28 25 22 21 20 20 19 19 18 17 15 15 16 17 17 16 15 15 14 14 14 14 14 13 13 13 13 12 11 11 10 10 10 10 9 9 9 9 8 8 8 7 7 7 7 6 6 6 6 6 6 6 5 4 4 5 5 5 5 5 5 5 6 7 7 6 5 5 6 7 7 7 7 7 8 9 9 10 10 10
20 21 25 29 31 30 28 25 23 22 21 21 20 20 19 17 16 17 18 18 18 18 17 16 16 15 15 15 14 14 13 13 13 12 11 11 10 10 10 10 10 10 9 9 9 9 8 8 7 7 6 6 6 6 6 6 6 6 5 6 6 6 6 6 6 7 7 8 8 8 7 6 6 7 8 7 7 7 8 9 10 11 11 10 11
22 22 24 27 31 31 30 27 25 24 22 21 21 22 20 18 17 17 18 19 19 20 19 19 18 17 16 16 15 15 14 14 13 13 12 12 11 11 11 10 10 10 10 10 10 10 9 8 7 7 7 6 7 7 7 8 8 7 7 7 7 7 8 8 8 9 9 9 9 9 9 8 8 8 8 8 8 9 10 11 12 12 13 13 13
24 23 23 26 30 31 30 29 28 26 24 22 21 22 22 20 19 18 19 20 20 21 21 20 19 18 18 17 16 16 15 15 14 14 13 13 12 11 11 11 10 10 10 10 10 10 9 9 8 8 8 8 8 9 9 9 9 9 8 8 8 9 9 9 9 10 10 10 10 10 11 10 10 9 9 9 10 11 12 12 13 14 14 14 15
24 22 23 26 30 32 31 29 29 29 27 24 22 22 23 22 20 20 20 21 21 22 23 22 21 20 19 19 18 17 17 16 16 15 14 14 13 12 11 11 10 10 10 9 9 10 10 10 10 9 10 10 10 9 10 11 10 10 10 10 10 10 10 10 10 11 12 12 12 12 12 12 11 11 11 11 12 13 13 14 14 15 15 16 16
25 24 24 24 27 34 34 31 31 31 29 27 24 23 24 23 22 22 22 22 22 22 23 23 23 22 21 20 20 19 19 18 18 17 16 15 14 13 13 12 12 11 11 10 10 10 11 12 11 11 11 12 12 10 11 12 11 11 12 12 12 12 12 12 12 13 13 13 13 13 13 14 13 12 12 13 14 14 14 15 16 17 17 17 18
26 28 27 24 25 31 35 33 33 34 32 29 27 25 25 25 25 24 24 24 24 24 24 24 23 23 22 22 21 20 20 20 20 19 18 17 16 15 14 13 13 13 13 13 13 13 15 15 13 13 13 14 14 12 11 13 13 13 13 14 14 14 14 14 14 15 15 15 14 15 15 15 15 15 14 14 14 15 15 16 17 17 18 18 18
24 26 28 26 25 29 33 35 35 36 35 33 30 28 26 26 26 26 26 26 25 25 25 25 24 23 23 23 22 22 22 22 21 20 19 18 17 16 16 15 15 15 15 15 14 13 16 17 15 15 16 17 17 17 16 15 14 13 14 16 17 16 15 16 16 16 16 16 16 16 17 17 17 17 17 16 16 16 17 18 18 18 18 19 19
22 23 23 24 26 29 32 35 37 36 35 35 33 29 27 27 27 27 27 27 26 26 26 26 25 24 24 24 24 24 23 23 22 21 19 19 18 18 18 18 17 17 17 17 16 15 17 18 17 17 18 19 19 19 18 17 16 16 17 18 18 17 16 17 17 17 17 18 18 18 19 20 20 20 19 19 19 19 19 19 20 20 20 21 21
24 23 21 21 24 28 31 34 37 37 36 36 34 31 30 28 28 28 28 28 27 26 26 27 27 26 26 26 25 25 24 23 22 21 20 20 20 21 21 21 20 19 19 19 18 18 19 18 18 18 19 19 20 20 19 18 19 19 19 20 20 18 17 17 17 18 19 19 19 20 21 22 22 22 22 22 22 22 22 22 22 22 22 22 23
26 25 23 20 21 25 29 33 36 36 35 35 33 32 32 31 30 29 29 29 28 27 27 27 28 28 28 28 27 26 25 23 22 22 22 22 23 23 24 23 22 21 21 20 20 20 20 20 19 19 19 19 19 20 21 21 21 21 21 21 21 20 19 19 19 19 20 20 21 22 23 23 24 24 25 24 24 25 25 25 25 24 24 24 24
23 24 24 23 21 22 25 28 32 34 34 34 33 33 33 34 32 30 31 32 30 28 28 28 28 28 28 28 27 26 25 25 25 25 25 25 25 24 24 23 22 21 21 20 20 21 21 20 21 20 20 20 20 21 22 23 24 23 23 22 22 21 21 21 21 21 22 22 23 24 24 25 26 26 26 26 26 26 26 27 27 27 26 26 25
20 21 23 24 24 23 23 24 28 31 32 34 35 33 32 33 34 32 31 33 32 30 29 28 28 28 28 28 28 28 28 27 28 28 27 26 26 24 23 22 21 21 21 21 22 21 21 21 21 21 21 22 22 22 23 24 25 25 24 24 23 23 23 23 22 23 24 25 25 26 26 27 27 28 28 28 27 27 27 27 27 27 26 25 25
18 19 20 22 23 24 25 26 27 29 31 35 37 35 32 33 35 35 34 34 33 31 30 30 30 30 30 30 30 30 31 32 31 29 28 27 26 24 23 22 22 23 22 23 23 22 22 22 23 23 23 23 23 24 25 25 26 26 26 26 25 24 24 24 24 24 25 26 26 27 27 28 30 30 31 31 30 29 29 28 28 28 27 26 27
18 19 19 19 21 23 25 26 28 29 30 33 37 37 35 34 35 37 38 37 36 33 31 32 32 32 33 33 33 33 33 33 32 31 29 28 26 25 24 23 23 23 23 24 24 24 24 25 25 26 25 25 25 25 26 27 28 29 28 27 26 26 26 26 26 26 27 27 27 27 28 29 31 32 32 32 32 32 32 31 31 31 31 31 31
19 21 21 19 20 22 24 25 26 28 29 30 33 36 37 37 36 37 39 39 37 35 34 34 33 34 36 36 35 36 34 33 33 33 32 31 28 27 26 25 24 25 26 25 25 25 26 26 27 28 27 27 27 27 27 28 29 30 30 29 28 27 27 27 27 27 28 29 29 29 29 30 31 32 32 32 33 34 35 34 34 34 34 34 34
16 19 22 21 19 20 23 25 26 27 29 30 31 34 37 38 37 37 37 39 40 39 38 37 36 35 36 36 37 37 35 34 35 36 35 33 31 28 26 25 26 27 27 27 26 27 28 29 29 29 29 29 29 28 28 28 28 29 30 29 28 27 27 27 27 28 28 29 31 31 31 32 32 32 32 33 34 35 36 36 36 35 35 35 34
16 16 18 20 21 21 23 26 27 29 30 31 32 34 36 38 38 38 37 37 40 42 40 39 38 37 36 37 37 36 36 36 36 36 36 35 33 30 28 26 26 27 28 28 28 28 29 30 30 29 29 29 30 29 28 27 27 27 28 28 28 28 28 29 30 30 31 32 33 34 33 33 32 33 34 35 37 37 36 37 36 36 35 35 35
21 18 15 15 18 20 23 27 29 30 31 33 33 33 33 34 36 39 39 38 39 41 41 41 41 40 39 39 39 37 36 37 38 37 36 36 35 34 30 27 27 29 30 29 28 29 30 30 30 29 28 29 29 29 29 28 27 26 27 27 28 29 30 32 33 34 35 36 37 36 36 36 35 35 36 37 38 38 37 37 37 36 36 37 36
24 22 18 16 16 19 23 27 30 31 33 33 35 35 34 32 32 36 40 41 41 42 44 45 44 43 42 43 43 41 39 39 40 39 38 37 36 35 33 31 30 32 32 30 29 31 31 31 30 30 30 30 31 31 31 30 29 28 29 29 28 31 33 34 37 40 39 37 37 36 36 36 36 36 36 37 38 39 38 38 38 39 39 39 39
25 25 24 22 20 22 24 26 29 32 33 32 33 36 35 32 31 34 37 40 43 45 46 45 45 44 45 46 45 43 43 43 42 42 39 36 36 37 37 35 33 33 33 33 33 33 32 30 30 31 32 33 33 33 33 33 32 31 31 29 29 34 36 34 37 41 37 31 31 32 32 33 34 35 35 34 34 35 37 39 40 41 42 42 42
23 24 25 24 24 25 26 26 28 30 30 30 34 40 41 37 33 36 40 42 44 46 46 45 45 46 48 48 47 46 46 45 45 45 42 38 38 40 39 36 35 35 35 35 34 33 31 29 30 35 39 38 35 35 36 35 33 32 32 30 30 34 34 33 35 38 34 29 30 32 32 33 34 35 36 34 33 34 36 39 41 42 42 42 42
22 23 24 24 24 25 26 26 26 26 27 27 25 26 34 37 33 36 44 47 46 48 47 47 48 48 48 49 49 48 47 47 47 47 43 40 40 40 36 34 36 37 36 35 34 32 29 28 29 33 38 37 34 35 38 39 36 33 33 34 35 36 37 37 38 38 36 35 36 37 36 36 36 37 38 37 36 36 36 37 39 41 42 42 41
21 22 23 23 23 25 25 25 23 22 25 25 16 8 13 20 21 24 32 36 37 40 44 46 48 49 48 49 51 51 48 47 47 45 43 42 42 40 37 36 36 35 35 35 35 32 30 33 36 35 34 34 33 32 35 40 42 39 37 37 38 38 40 41 41 40 40 40 40 39 39 39 39 38 39 39 39 38 37 38 40 41 42 42 41
22 20 20 20 21 23 24 23 21 20 22 25 25 21 19 18 17 16 19 22 24 29 38 45 48 47 46 47 48 47 46 45 44 44 42 40 38 38 37 35 34 33 33 33 32 31 31 36 41 43 42 42 39 33 32 36 40 39 38 40 41 40 41 41 41 40 41 41 40 39 38 37 37 37 37 37 37 37 38 38 39 39 39 38 37
25 21 19 19 20 22 22 21 19 18 17 19 22 24 24 24 24 21 20 20 20 21 26 34 38 40 41 42 43 43 43 40 38 37 36 34 34 35 34 33 33 33 33 31 30 31 33 35 39 42 42 42 42 39 37 37 37 35 35 38 40 39 39 40 39 38 38 38 37 35 34 33 33 33 33 31 29 28 29 30 31 31 31 31 31
25 23 21 21 21 21 20 19 17 15 14 13 15 17 17 20 24 26 23 20 20 20 22 25 28 29 32 34 36 38 38 36 34 35 35 34 34 33 32 32 32 33 33 33 31 31 32 34 37 39 39 38 38 38 38 40 38 35 34 35 35 35 35 36 35 33 31 29 27 26 25 24 24 24 24 23 23 23 24 25 26 27 28 28 29
25 24 23 23 22 20 19 19 17 14 11 10 12 14 14 12 15 18 17 16 15 16 18 20 21 22 25 28 29 30 32 35 36 37 38 37 36 34 34 33 32 32 33 34 33 32 33 34 35 35 34 33 31 30 30 30 29 29 30 31 30 28 28 27 26 24 23 21 20 20 20 20 20 21 21 22 22 22 23 24 26 28 29 30 31
25 25 24 24 22 20 19 18 17 14 11 9 10 12 13 13 14 15 16 17 18 17 16 15 16 19 24 27 28 28 30 32 32 32 33 35 36 37 37 36 35 34 35 35 35 35 34 34 34 33 31 28 25 24 23 23 22 22 23 23 23 22 22 21 21 21 21 21 21 21 22 22 22 23 23 23 22 22 23 24 26 28 30 32 34
24 24 24 24 23 21 19 18 17 14 12 11 11 11 12 12 14 15 14 14 17 20 21 21 20 22 24 24 24 25 26 28 29 30 31 32 34 35 37 37 37 37 38 38 37 36 35 35 34 33 31 28 24 22 20 20 20 20 21 22 22 22 22 22 22 23 23 23 23 23 23 24 24 24 25 25 26 26 26 27 29 31 33 35 37
23 24 24 24 23 22 21 19 18 16 12 10 11 13 14 13 11 9 7 5 6 10 16 20 22 24 25 24 24 25 26 26 27 26 27 28 30 32 33 34 35 35 36 36 34 32 32 32 31 29 26 24 22 21 20 19 19 20 21 22 22 23 23 23 23 23 24 24 24 25 25 25 25 26 27 28 29 30 30 31 32 34 36 38 39
23 24 24 23 23 23 21 20 20 17 13 12 14 16 16 13 8 5 4 3 3 5 9 12 13 15 16 17 17 18 19 20 20 19 20 21 23 24 25 26 26 25 25 24 23 22 22 22 21 19 17 16 16 16 16 17 18 19 20 21 21 21 22 22 23 24 25 25 26 26 26 27 27 28 29 30 31 32 34 35 36 38 39 41 42
Wind_Direction
198 183 226 245 164 143 129 123 137 142 143 139 139 132 130 130 122 118 117 116 117 118 119 122 126 131 137 145 152 153 154 154 153 148 141 134 129 127 124 119 116 113 112 111 112 115 116 117 118 118 120 126 132 132 131 132 128 127 130 129 125 123 122 115 106 111 128 143 155 156 113 116 190 248 285 335 338 345 354 360 360 346 342 344 342
211 206 229 251 243 177 144 149 159 160 167 165 164 156 150 146 134 128 124 121 120 119 122 125 127 134 139 148 157 160 160 158 157 154 145 138 133 131 128 126 122 118 116 113 111 111 110 112 115 118 124 129 134 135 133 130 131 140 143 139 135 128 120 114 114 121 130 143 157 176 197 186 216 282 359 348 311 332 345 352 351 335 336 343 343
215 218 230 241 247 218 162 165 177 169 177 181 181 176 166 157 145 138 133 130 127 124 128 130 132 136 137 143 155 163 164 160 157 156 151 143 137 136 135 133 130 124 121 118 114 109 107 109 112 114 121 130 134 135 133 135 148 160 154 145 144 137 121 118 131 139 142 156 161 184 210 144 233 304 11 10 346 355 339 336 335 328 334 348 354
215 221 233 236 235 239 207 188 195 184 185 186 188 190 180 165 151 144 141 138 139 137 137 136 133 134 136 143 150 157 166 164 157 157 157 150 144 143 143 143 140 134 129 125 120 114 111 112 112 113 120 129 135 140 145 150 159 163 152 144 148 147 133 131 145 149 156 174 167 180 229 60 304 315 37 21 15 14 348 358 341 328 334 342 352
218 219 233 238 237 247 244 223 214 204 201 194 190 195 193 178 158 150 146 142 144 144 142 138 131 133 142 150 153 155 166 168 160 160 162 155 150 150 150 150 147 141 137 132 128 123 118 117 119 123 126 130 136 143 149 152 153 151 145 145 151 154 155 152 153 157 167 174 158 141 119 17 305 339 29 21 32 26 360 31 20 348 338 331 334
222 221 234 242 238 243 247 246 234 218 216 209 198 197 200 191 168 156 150 144 145 143 140 138 134 136 143 149 153 154 161 164 160 163 164 157 156 156 155 155 150 145 145 140 136 132 127 128 134 138 139 139 140 144 150 154 151 148 149 154 153 155 166 164 159 168 164 147 126 133 168 191 235 318 23 30 40 38 358 9 22 6 334 328 329
222 219 229 237 233 234 243 249 246 230 222 222 210 200 202 199 180 164 156 149 146 143 141 144 142 140 142 143 146 149 155 160 160 162 162 160 162 161 159 158 153 152 154 151 148 143 140 145 152 153 150 149 149 151 157 160 159 159 159 158 150 148 159 164 160 160 147 144 149 168 188 172 173 252 29 31 27 36 345 346 10 356 323 327 331
222 218 222 233 233 232 240 247 250 239 226 226 219 207 202 203 193 174 162 155 151 147 147 151 149 144 144 143 143 147 152 156 158 159 160 161 165 166 164 163 160 161 163 161 158 154 155 161 165 163 155 153 157 160 161 161 162 163 159 154 147 144 150 159 165 165 159 157 158 174 188 158 165 200 106 44 69 72 308 320 347 323 311 321 330
222 219 221 231 234 232 238 244 248 245 235 229 224 215 207 205 201 185 171 163 158 156 155 156 152 146 145 142 141 145 149 152 157 158 159 163 167 168 167 165 164 168 169 167 164 163 165 169 170 165 157 155 161 165 163 162 164 164 162 158 156 157 159 161 166 171 172 164 157 168 177 160 166 174 170 168 135 148 251 270 287 287 300 314 331
222 222 222 229 233 233 235 239 244 248 243 235 228 221 215 208 205 195 180 171 166 164 160 158 153 148 144 140 139 143 145 149 153 154 158 163 165 165 163 163 165 170 172 170 167 167 169 172 170 164 157 157 164 170 165 160 163 167 168 168 170 173 173 173 168 165 167 161 158 168 170 163 168 174 188 184 149 178 217 235 266 277 293 308 332
219 220 220 224 230 232 233 236 243 247 246 241 232 224 219 212 207 203 192 180 173 170 165 159 152 149 146 141 139 142 145 145 145 148 155 158 157 156 155 156 161 166 169 169 166 165 167 169 168 161 156 160 168 169 161 156 160 166 169 171 178 182 179 177 176 173 175 168 166 176 184 190 191 192 196 184 176 200 222 246 262 272 288 308 330
217 216 216 219 225 230 231 232 238 241 242 242 234 224 219 215 209 206 201 190 180 175 170 161 156 154 153 147 141 141 143 142 143 148 151 152 150 147 148 151 155 158 159 161 160 159 162 165 165 159 156 161 166 162 155 154 159 164 168 171 180 186 179 176 178 182 186 179 180 194 205 211 213 218 222 218 204 206 229 248 259 272 286 302 307
216 214 215 217 219 223 225 226 230 231 233 238 233 222 219 216 212 208 204 198 189 182 175 167 163 162 159 154 146 144 145 143 143 147 147 146 144 142 145 148 149 148 149 152 152 152 157 160 161 157 155 159 161 160 158 161 165 167 170 174 178 184 183 183 185 189 198 198 201 213 222 227 232 240 254 270 267 250 253 267 275 277 282 293 297
216 215 214 216 216 217 219 220 224 226 228 234 231 221 219 216 212 210 205 201 195 189 182 174 170 170 166 161 154 150 150 146 143 144 142 141 141 143 144 142 141 142 145 147 146 150 154 155 156 156 157 158 159 162 166 168 171 173 177 181 184 187 190 195 203 211 221 227 231 233 236 240 242 252 275 289 295 297 305 309 297 281 288 303 307
218 216 213 214 215 215 215 213 218 222 224 232 233 222 219 216 212 210 206 202 198 193 189 182 176 175 173 169 165 161 157 153 149 147 144 144 144 145 143 140 140 140 142 144 145 149 151 149 152 156 158 161 162 165 169 173 177 179 185 194 196 202 210 220 232 242 252 259 265 263 262 264 257 267 303 314 315 315 319 321 306 272 283 298 304
221 220 215 213 214 214 212 208 211 218 220 228 234 227 219 217 213 210 208 204 200 195 193 189 183 180 179 176 174 170 166 163 160 157 155 153 151 150 149 149 150 148 147 147 148 150 149 148 153 158 160 164 166 169 175 179 183 181 189 211 227 234 236 245 258 267 273 276 279 279 281 284 285 305 323 316 305 307 315 321 316 310 315 307 306
221 223 220 215 215 215 212 207 207 213 215 221 230 229 222 218 214 211 209 206 202 198 194 193 190 186 184 181 179 178 175 172 171 170 168 165 163 162 163 163 161 160 159 160 162 161 157 157 161 165 166 169 173 177 179 183 190 188 191 214 245 257 257 261 268 268 274 284 291 296 298 301 312 325 317 304 304 312 321 326 325 332 346 352 344
217 220 223 219 216 217 214 208 205 209 212 218 227 229 225 221 216 212 211 208 204 199 194 193 194 192 189 186 184 182 179 178 180 181 179 176 176 174 174 175 173 170 171 174 176 174 173 174 173 173 175 179 183 184 184 192 207 217 222 230 252 271 279 279 280 281 290 302 304 307 310 318 334 334 315 313 322 325 327 328 328 335 343 347 349
218 216 221 218 214 215 215 211 207 208 212 220 228 230 226 224 219 213 212 211 206 202 198 195 195 194 192 191 189 185 182 183 185 187 186 185 184 182 182 183 180 176 178 181 183 183 184 186 183 183 187 190 191 189 191 202 215 227 238 251 262 272 277 281 292 299 301 300 299 300 306 319 334 326 317 326 334 332 330 327 324 329 337 343 347
222 216 219 219 213 212 215 215 211 209 212 218 227 230 227 224 222 216 213 212 210 207 203 199 198 196 194 192 191 189 187 186 187 188 187 187 186 185 186 187 183 182 184 186 187 188 190 191 191 191 193 196 196 196 198 206 219 228 235 246 255 258 264 274 284 287 284 284 287 291 296 305 313 310 314 324 326 320 317 314 313 319 326 333 338
221 217 217 218 215 211 213 216 215 214 213 216 224 230 227 224 223 220 215 214 213 211 207 203 201 200 198 195 192 191 191 190 190 189 189 190 190 189 190 191 188 189 192 193 194 196 197 198 197 198 201 204 207 210 213 219 227 235 239 244 252 259 263 265 268 271 275 280 284 289 296 301 305 306 310 315 313 307 303 303 307 311 315 320 323
217 215 211 212 214 215 216 217 218 219 217 216 221 229 230 226 224 223 219 216 216 215 211 208 205 203 203 202 198 196 195 196 196 194 194 196 197 197 199 200 199 197 199 201 202 204 206 206 207 210 215 220 222 223 227 237 243 245 247 251 255 261 264 265 268 272 276 281 285 291 297 301 304 305 305 306 304 301 299 300 304 306 309 311 312
218 211 207 210 213 216 220 222 219 219 219 216 218 225 230 228 224 224 223 220 217 217 216 213 210 208 208 207 206 204 202 203 203 201 201 202 204 205 206 208 210 208 206 207 208 209 212 214 214 216 221 226 231 235 238 244 252 255 256 257 258 260 263 266 270 274 277 278 281 286 290 294 297 297 296 297 297 296 297 299 301 303 304 304 304
228 216 214 222 221 218 223 228 224 220 219 218 217 223 229 229 226 224 225 224 221 220 219 217 214 213 212 212 212 212 211 210 210 209 207 207 207 209 211 212 214 214 214 214 215 215 217 220 220 221 227 230 231 239 245 246 249 253 256 256 257 259 260 263 265 269 273 275 277 281 285 289 293 293 293 294 294 294 296 297 296 297 297 298 299
236 229 226 232 228 220 223 229 227 223 222 220 219 223 228 229 227 225 226 226 224 223 222 221 219 218 216 216 216 217 217 216 216 216 214 213 212 213 214 215 218 221 222 224 227 228 225 225 229 233 239 242 239 239 250 259 260 259 259 261 262 263 264 266 269 270 272 276 280 283 287 289 292 293 294 295 295 296 297 298 297 296 297 299 300
234 232 230 232 227 221 221 223 224 224 223 220 219 222 227 230 229 226 226 227 227 226 226 224 223 221 221 220 220 220 221 221 221 220 219 219 219 219 219 221 224 227 228 229 232 236 237 236 239 243 243 244 245 244 252 263 264 261 268 274 274 272 273 273 275 277 278 281 283 283 286 288 290 292 293 294 295 296 298 298 298 299 300 301 302
230 229 230 228 226 224 221 218 219 221 222 221 220 222 228 233 234 231 228 228 228 229 229 228 226 224 224 224 224 224 225 225 225 224 223 223 224 226 228 228 230 232 234 235 233 235 240 239 240 244 241 237 238 242 246 249 250 254 269 281 281 280 280 280 280 282 283 284 285 286 287 287 288 290 292 292 293 293 295 296 296 297 299 301 303
232 228 228 226 227 230 227 220 218 220 223 224 222 221 226 232 236 237 235 232 230 230 230 230 229 228 227 227 226 227 228 230 230 229 229 229 230 231 233 233 233 234 236 238 235 232 232 231 233 242 246 243 241 244 247 249 251 256 264 273 277 278 280 281 281 282 283 284 285 286 286 287 289 291 292 291 291 291 291 292 293 295 297 298 300
238 233 231 228 227 231 232 227 221 219 222 226 225 222 223 226 230 234 235 235 235 234 233 231 230 229 228 228 228 228 230 232 234 235 235 234 233 233 234 233 232 233 234 236 237 237 237 235 237 243 247 247 246 247 249 252 255 258 263 269 272 272 273 275 277 278 280 282 282 283 285 287 289 289 289 288 288 289 289 289 290 291 292 293 294
243 239 236 234 230 229 230 230 226 222 222 227 228 226 224 224 226 228 229 232 233 232 233 233 230 228 228 229 229 229 231 232 233 235 236 235 235 234 234 234 232 233 235 237 238 241 243 243 244 246 248 248 248 247 249 252 255 260 266 272 273 272 270 270 272 274 276 277 279 280 282 284 285 286 286 287 287 287 287 288 289 289 289 290 290
241 240 237 237 235 231 228 226 225 226 227 228 229 229 226 223 225 226 227 229 231 231 231 232 233 233 233 234 234 233 233 232 232 233 234 234 235 235 236 237 237 236 237 241 243 243 245 247 248 250 253 254 254 252 251 252 254 259 265 268 270 271 272 272 271 272 273 273 275 276 278 281 283 285 285 285 286 287 288 289 290 290 290 289 290
245 243 240 239 239 239 235 229 225 227 230 230 231 233 230 225 222 224 226 228 229 232 232 230 230 233 234 234 236 235 234 232 232 233 235 237 238 238 239 241 242 241 239 240 243 244 245 248 249 251 254 257 258 258 258 257 258 262 266 268 268 270 272 273 274 275 275 275 275 276 278 281 283 284 284 285 286 288 289 291 291 290 290 290 290
255 252 246 244 244 243 241 237 233 230 230 230 230 232 234 229 223 222 226 229 230 232 231 227 228 232 233 231 232 233 233 233 233 233 235 239 241 241 242 243 244 245 242 241 244 247 247 248 249 249 251 254 257 259 261 262 263 265 266 268 269 270 271 271 273 276 278 278 278 279 280 281 281 282 283 284 286 286 288 289 290 288 289 290 290
259 261 257 252 248 245 242 240 239 237 235 231 228 228 231 230 226 224 225 229 232 232 229 227 228 233 235 232 229 230 232 235 236 236 235 235 237 239 239 240 243 245 245 246 248 251 251 251 251 251 251 252 254 257 260 264 266 268 269 270 270 269 269 270 272 274 277 279 281 283 283 283 283 283 284 285 285 285 286 288 289 288 288 289 290
258 262 261 258 252 245 242 242 242 241 239 235 231 229 229 229 228 227 226 228 231 233 231 229 229 233 236 236 232 230 230 232 235 236 235 232 232 235 238 239 241 243 245 249 252 254 255 255 256 257 256 254 254 255 258 262 267 271 273 273 272 271 271 272 275 276 277 278 281 283 285 285 286 288 288 288 288 287 288 289 290 290 290 291 292
259 263 260 257 255 249 244 244 244 243 240 236 234 232 230 229 228 228 227 227 229 232 233 231 230 232 235 236 236 233 230 230 233 235 235 233 232 234 238 240 242 244 246 250 253 254 255 257 258 259 260 260 260 259 259 262 266 270 273 274 274 273 273 275 278 279 278 279 279 281 283 286 288 290 290 291 290 289 289 289 289 290 291 292 293
256 268 263 255 252 250 247 245 245 244 241 238 236 234 231 229 227 226 225 224 225 229 232 233 232 231 232 235 236 234 232 233 234 235 236 236 236 238 241 245 249 252 253 252 253 256 257 259 262 263 264 265 265 264 264 263 264 266 270 273 275 276 277 277 277 277 278 278 277 279 281 284 286 287 289 290 289 288 287 287 287 288 289 292 293
252 263 266 257 252 250 247 245 246 246 243 239 237 235 233 230 229 228 226 225 224 227 230 233 234 231 231 234 234 233 235 237 237 237 239 240 241 242 244 247 249 253 254 253 255 259 260 261 264 266 268 268 266 265 266 267 268 269 270 273 275 277 279 280 278 276 277 277 276 278 280 281 282 283 286 288 288 286 283 282 283 285 287 289 290
250 254 258 264 267 260 250 246 245 246 246 244 241 238 235 234 233 231 229 228 227 227 226 229 233 233 233 235 234 232 235 239 240 241 243 243 244 244 245 245 244 245 248 252 255 258 260 262 265 267 270 269 267 267 267 267 268 269 269 272 276 278 279 280 276 274 274 275 275 278 280 280 280 281 283 286 287 286 284 281 281 282 284 285 286
248 251 255 262 268 267 259 252 248 248 251 252 250 244 237 234 235 233 230 229 230 229 226 227 232 237 238 238 237 235 235 238 240 242 245 248 248 244 242 243 243 244 248 252 254 256 260 264 268 270 271 269 267 266 266 267 268 269 270 273 277 278 277 272 267 267 271 273 274 277 281 282 282 282 282 283 284 285 284 283 282 282 282 283 283
242 247 253 257 261 263 261 256 253 256 259 258 257 249 237 232 234 232 227 227 228 229 228 227 232 241 243 242 240 237 236 238 239 241 246 250 246 239 238 243 247 248 251 253 254 255 258 264 270 269 265 264 265 262 261 263 264 264 264 263 262 264 266 263 260 264 269 270 272 276 279 281 283 283 282 281 280 280 280 280 279 279 280 280 281
237 242 246 249 253 256 259 257 257 263 264 258 253 241 225 223 230 230 228 228 227 226 227 227 231 240 245 243 240 238 237 238 239 241 244 244 241 238 238 243 247 249 252 255 257 257 255 256 260 258 252 254 258 255 253 257 259 256 253 252 253 256 258 260 264 268 270 272 275 276 277 278 281 283 282 280 277 276 275 273 273 274 274 276 277
233 235 237 240 246 251 256 258 257 261 263 255 244 223 212 221 231 232 231 233 231 228 228 229 233 241 245 244 242 240 240 239 239 240 240 239 239 240 241 243 247 251 254 255 256 257 254 250 252 255 257 261 262 250 243 247 251 251 250 251 255 258 257 258 263 267 269 274 276 276 275 277 279 280 281 281 279 277 273 271 271 272 273 275 277
226 229 232 236 243 249 254 257 254 253 257 256 256 267 272 263 252 242 238 240 239 236 236 236 237 242 244 243 242 242 241 239 238 238 238 237 238 239 239 242 246 248 251 253 253 255 255 253 256 262 269 275 273 261 248 245 246 252 258 256 254 256 258 259 261 264 266 269 271 271 272 275 277 279 281 281 281 278 275 273 274 275 276 277 280
224 229 234 237 243 249 253 255 252 248 247 254 262 269 269 262 256 254 253 250 244 242 241 239 238 240 241 241 241 240 239 237 236 235 235 235 235 234 234 238 241 243 250 257 259 260 262 262 264 267 271 277 278 274 271 267 267 271 272 262 255 255 259 262 264 266 268 269 269 270 272 274 276 278 278 275 272 271 270 271 272 273 276 279 283
223 228 233 236 241 247 248 246 247 245 239 243 255 258 253 250 248 247 246 243 238 238 238 233 232 235 237 237 237 236 235 233 233 233 231 231 232 233 236 242 247 251 256 261 262 264 266 267 269 272 275 279 280 278 276 277 278 277 271 262 258 259 262 265 268 270 271 269 268 269 272 274 276 277 276 274 273 274 277 279 280 281 283 286 287
221 224 229 231 234 240 243 242 243 243 238 237 246 247 243 235 229 226 224 223 228 237 238 229 223 224 227 229 231 229 227 226 228 230 231 233 236 239 242 247 252 255 259 261 262 262 264 265 268 272 275 277 278 276 273 273 272 268 262 259 259 261 262 265 268 270 272 272 274 278 281 284 286 286 287 288 291 292 293 294 293 293 293 293 293
221 223 225 226 226 229 233 236 238 241 241 238 241 246 244 234 223 220 221 222 222 224 224 218 209 205 208 213 216 217 218 222 226 231 236 239 242 244 246 248 250 253 257 261 261 259 260 261 264 267 270 273 273 273 273 273 272 268 266 267 269 271 273 275 278 280 284 288 291 293 294 295 296 297 298 299 300 300 299 297 296 295 295 295 294
220 221 223 222 221 222 226 229 231 235 242 246 246 248 247 235 223 220 221 222 222 219 217 216 213 210 210 214 219 223 229 235 240 243 245 246 246 247 248 248 249 251 254 256 256 255 256 258 259 260 262 264 267 271 275 279 279 278 279 280 283 285 289 291 292 294 296 297 299 300 300 301 302 302 303 302 301 300 299 298 298 297 296 296 296
221 220 222 222 221 221 222 224 225 229 239 243 235 235 239 232 216 202 196 198 213 216 215 216 218 221 224 226 228 231 234 238 240 241 241 242 244 244 244 244 244 245 247 248 247 247 249 252 253 254 256 260 265 270 275 280 284 286 287 289 291 294 297 298 300 300 301 301 302 302 303 303 304 303 303 302 301 300 299 298 297 296 296 296 295
226 222 222 222 222 222 221 220 221 224 232 231 222 222 228 223 196 158 150 162 159 161 172 184 195 203 208 211 213 215 218 220 223 225 226 228 231 231 232 233 234 236 237 239 239 240 243 247 251 256 263 271 277 282 285 288 290 292 294 296 298 299 301 302 302 303 303 304 305 306 306 306 305 304 303 301 300 299 299 298 297 296 296 295 295
Height
5906 5908 5909 5909 5910 5910 5910 5910 5911 5911 5912 5912 5912 5913 5913 5913 5914 5915 5917 5918 5919 5920 5921 5922 5922 5923 5923 5924 5924 5925 5926 5926 5926 5927 5927 5927 5928 5928 5929 5929 5929 5930 5929 5929 5930 5930 5930 5930 5930 5930 5931 5933 5934 5934 5935 5936 5936 5937 5938 5939 5939 5939 5939 5939 5938 5938 5938 5938 5938 5939 5938 5938 5938 5937 5937 5937 5937 5936 5936 5936 5935 5935 5933 5932 5931
5906 5907 5908 5909 5910 5910 5910 5911 5911 5912 5912 5913 5913 5913 5914 5914 5914 5915 5916 5917 5918 5919 5921 5922 5923 5923 5924 5924 5925 5926 5926 5927 5927 5927 5927 5927 5928 5929 5929 5929 5930 5930 5930 5930 5930 5931 5930 5930 5931 5931 5932 5933 5934 5935 5935 5936 5937 5938 5938 5939 5939 5939 5939 5939 5938 5938 5938 5938 5938 5938 5938 5938 5938 5938 5937 5937 5937 5937 5936 5935 5935 5934 5933 5933 5932
5906 5907 5908 5909 5910 5910 5910 5911 5911 5912 5913 5913 5914 5914 5914 5915 5915 5915 5916 5917 5918 5919 5920 5922 5923 5924 5924 5925 5925 5926 5926 5926 5927 5927 5927 5927 5928 5929 5929 5930 5930 5930 5930 5931 5931 5931 5931 5931 5931 5932 5933 5933 5934 5935 5935 5936 5937 5938 5938 5939 5939 5939 5939 5939 5938 5938 5938 5938 5938 5938 5939 5939 5938 5938 5938 5937 5937 5937 5936 5934 5934 5934 5934 5933 5933
5906 5907 5908 5909 5909 5909 5910 5911 5911 5912 5912 5913 5914 5914 5915 5915 5915 5915 5916 5917 5918 5920 5921 5922 5923 5924 5925 5925 5925 5926 5926 5926 5926 5927 5927 5928 5928 5929 5930 5930 5930 5930 5931 5931 5931 5931 5931 5932 5932 5932 5933 5934 5934 5935 5936 5937 5937 5938 5938 5938 5939 5939 5939 5938 5938 5938 5938 5938 5938 5939 5939 5938 5938 5938 5937 5937 5937 5936 5935 5934 5934 5934 5935 5934 5933
5905 5906 5907 5908 5908 5909 5910 5910 5911 5911 5912 5913 5914 5914 5915 5915 5915 5916 5916 5917 5918 5920 5921 5922 5922 5923 5924 5924 5925 5925 5926 5926 5926 5927 5927 5928 5928 5929 5930 5930 5930 5931 5931 5931 5931 5932 5932 5932 5933 5933 5934 5934 5935 5935 5936 5937 5937 5938 5938 5938 5938 5939 5939 5938 5938 5938 5938 5939 5938 5938 5938 5938 5937 5937 5937 5937 5937 5936 5935 5934 5934 5935 5935 5934 5933
5904 5906 5906 5907 5908 5909 5909 5910 5910 5911 5912 5912 5913 5914 5915 5915 5915 5915 5916 5917 5918 5919 5920 5921 5922 5922 5923 5923 5924 5924 5925 5925 5926 5926 5927 5928 5928 5929 5930 5930 5931 5931 5931 5931 5932 5932 5932 5933 5933 5934 5934 5935 5935 5936 5936 5937 5937 5937 5937 5938 5938 5938 5938 5938 5938 5939 5939 5939 5939 5938 5938 5938 5937 5937 5937 5937 5937 5936 5936 5935 5935 5934 5934 5934 5933
5903 5905 5906 5906 5907 5908 5909 5910 5910 5911 5911 5912 5913 5913 5914 5915 5915 5915 5916 5916 5917 5918 5919 5920 5921 5922 5922 5923 5923 5924 5924 5925 5925 5926 5927 5927 5928 5929 5929 5930 5930 5931 5931 5932 5932 5932 5933 5934 5934 5934 5935 5935 5936 5936 5936 5937 5937 5937 5937 5937 5937 5937 5938 5938 5939 5939 5939 5939 5939 5938 5938 5938 5938 5937 5937 5937 5937 5937 5936 5935 5934 5934 5933 5933 5933
5903 5904 5905 5905 5906 5907 5908 5909 5910 5910 5911 5911 5912 5913 5914 5914 5915 5915 5915 5916 5917 5918 5919 5919 5920 5921 5922 5922 5923 5923 5924 5924 5925 5925 5926 5927 5928 5928 5929 5929 5930 5931 5931 5932 5932 5933 5933 5934 5934 5935 5935 5936 5936 5937 5937 5937 5937 5937 5937 5937 5937 5937 5938 5938 5939 5939 5939 5939 5939 5938 5938 5938 5938 5938 5937 5937 5937 5937 5936 5935 5934 5933 5933 5932 5932
5901 5902 5904 5904 5905 5906 5907 5908 5909 5910 5910 5911 5912 5913 5914 5914 5915 5915 5915 5916 5916 5917 5918 5919 5920 5920 5921 5922 5922 5923 5923 5924 5924 5925 5925 5926 5927 5928 5928 5929 5930 5931 5931 5932 5932 5933 5933 5934 5934 5935 5936 5936 5936 5937 5937 5937 5937 5937 5937 5937 5938 5938 5938 5939 5939 5939 5939 5939 5939 5938 5938 5938 5938 5938 5937 5937 5937 5936 5935 5934 5933 5933 5932 5932 5931
5900 5901 5902 5903 5904 5905 5906 5908 5909 5909 5910 5910 5911 5912 5913 5914 5915 5915 5915 5915 5916 5917 5918 5919 5919 5920 5920 5921 5922 5922 5923 5924 5924 5924 5925 5926 5927 5927 5928 5929 5930 5930 5931 5932 5933 5933 5933 5934 5934 5935 5935 5936 5936 5936 5936 5937 5937 5937 5938 5938 5938 5939 5939 5939 5939 5939 5939 5939 5938 5938 5938 5938 5937 5937 5937 5937 5936 5936 5935 5934 5933 5932 5932 5932 5931
5898 5900 5901 5902 5903 5904 5905 5907 5908 5909 5910 5910 5911 5912 5913 5914 5914 5915 5915 5915 5916 5917 5918 5919 5919 5920 5920 5921 5922 5922 5923 5924 5924 5924 5925 5926 5926 5927 5928 5928 5929 5930 5931 5932 5933 5933 5933 5934 5934 5935 5935 5936 5936 5936 5936 5937 5937 5938 5938 5938 5939 5939 5939 5939 5939 5939 5939 5938 5938 5938 5938 5938 5937 5937 5937 5936 5936 5936 5935 5934 5933 5932 5932 5932 5931
5896 5898 5900 5901 5902 5903 5904 5906 5907 5908 5909 5909 5910 5911 5912 5913 5914 5915 5915 5915 5916 5916 5917 5919 5919 5920 5921 5921 5922 5923 5923 5924 5924 5925 5926 5926 5926 5927 5927 5928 5929 5930 5931 5932 5933 5933 5934 5934 5934 5935 5935 5936 5936 5936 5937 5937 5937 5938 5938 5939 5939 5939 5939 5939 5939 5939 5939 5938 5938 5938 5938 5938 5937 5937 5936 5936 5936 5936 5935 5934 5934 5933 5932 5932 5932
5894 5896 5898 5900 5901 5902 5903 5904 5906 5907 5908 5908 5909 5910 5912 5913 5914 5914 5915 5915 5916 5916 5917 5918 5919 5920 5921 5921 5922 5923 5924 5924 5925 5925 5926 5926 5927 5927 5928 5929 5929 5930 5931 5932 5933 5933 5934 5934 5934 5935 5935 5936 5936 5936 5937 5937 5937 5938 5938 5938 5939 5939 5939 5939 5939 5939 5938 5938 5938 5938 5938 5938 5937 5937 5936 5936 5937 5936 5936 5935 5935 5934 5933 5933 5932
5892 5893 5896 5898 5900 5901 5902 5903 5904 5906 5907 5907 5908 5910 5911 5912 5913 5914 5914 5915 5915 5916 5917 5918 5919 5920 5921 5921 5922 5923 5924 5925 5926 5926 5926 5927 5928 5928 5929 5929 5930 5930 5931 5932 5933 5933 5934 5934 5934 5935 5935 5936 5936 5936 5937 5937 5937 5937 5938 5938 5938 5938 5938 5939 5938 5938 5938 5938 5938 5938 5938 5937 5937 5937 5937 5937 5937 5937 5936 5936 5936 5935 5934 5933 5932
5890 5891 5893 5895 5897 5899 5900 5902 5903 5904 5906 5906 5907 5909 5910 5911 5912 5913 5914 5914 5915 5916 5917 5917 5918 5919 5920 5921 5922 5923 5924 5925 5926 5926 5927 5928 5928 5929 5929 5930 5930 5931 5931 5932 5933 5933 5934 5934 5934 5935 5935 5935 5936 5936 5937 5937 5937 5938 5938 5938 5938 5938 5938 5938 5938 5938 5938 5938 5938 5937 5937 5937 5937 5937 5937 5937 5937 5936 5936 5936 5936 5935 5934 5933 5932
5889 5889 5891 5893 5895 5897 5899 5900 5902 5903 5904 5905 5906 5907 5909 5910 5911 5912 5913 5914 5915 5915 5916 5917 5918 5919 5920 5921 5922 5923 5924 5925 5926 5926 5927 5928 5928 5929 5930 5930 5931 5931 5931 5932 5933 5933 5934 5934 5934 5935 5935 5936 5936 5937 5937 5937 5938 5938 5938 5938 5938 5938 5938 5938 5938 5938 5937 5937 5937 5937 5937 5937 5937 5937 5937 5936 5936 5935 5934 5935 5935 5935 5934 5933 5932
5888 5888 5890 5891 5893 5895 5897 5899 5901 5902 5903 5904 5904 5906 5907 5908 5910 5911 5912 5913 5914 5915 5916 5917 5918 5919 5919 5920 5921 5922 5923 5925 5925 5926 5927 5927 5928 5929 5929 5930 5930 5931 5931 5932 5932 5933 5933 5934 5934 5935 5935 5936 5936 5937 5937 5937 5938 5938 5938 5938 5938 5937 5938 5937 5937 5937 5937 5937 5937 5937 5937 5937 5937 5937 5936 5935 5935 5934 5934 5934 5934 5933 5933 5933 5932
5885 5886 5888 5890 5892 5893 5895 5898 5899 5900 5901 5902 5903 5904 5906 5907 5908 5910 5911 5912 5913 5914 5915 5916 5917 5918 5919 5920 5921 5922 5923 5924 5925 5926 5926 5927 5928 5928 5929 5929 5930 5931 5931 5932 5932 5932 5933 5934 5934 5935 5936 5936 5937 5937 5937 5937 5937 5937 5937 5937 5937 5937 5937 5937 5937 5937 5937 5937 5937 5936 5937 5937 5937 5936 5935 5935 5934 5934 5933 5933 5932 5932 5932 5931 5931
5882 5884 5886 5887 5889 5891 5893 5896 5897 5898 5900 5901 5901 5903 5905 5906 5907 5908 5909 5910 5912 5913 5914 5915 5916 5918 5918 5919 5920 5921 5922 5923 5924 5925 5926 5927 5927 5928 5928 5929 5930 5930 5931 5931 5932 5932 5933 5933 5934 5935 5935 5936 5936 5936 5936 5936 5936 5936 5936 5936 5936 5936 5936 5936 5936 5936 5936 5936 5936 5936 5936 5936 5936 5935 5934 5934 5934 5933 5933 5932 5931 5931 5931 5930 5929
5880 5882 5884 5885 5886 5888 5890 5893 5895 5897 5898 5899 5900 5901 5903 5904 5905 5906 5908 5909 5911 5912 5913 5914 5915 5916 5918 5919 5920 5920 5921 5922 5923 5924 5925 5926 5927 5928 5928 5929 5929 5930 5930 5931 5931 5932 5932 5933 5934 5934 5935 5935 5935 5935 5935 5935 5935 5935 5935 5935 5935 5935 5935 5935 5935 5935 5935 5935 5935 5935 5935 5935 5935 5934 5934 5934 5933 5932 5932 5931 5930 5930 5929 5928 5928
5877 5879 5880 5882 5884 5886 5888 5890 5893 5895 5896 5898 5898 5899 5901 5903 5904 5905 5906 5908 5909 5910 5911 5913 5914 5915 5916 5917 5918 5919 5920 5921 5922 5923 5924 5925 5926 5927 5928 5928 5929 5929 5930 5930 5931 5931 5932 5933 5933 5934 5934 5934 5934 5935 5935 5935 5935 5935 5935 5935 5934 5934 5934 5934 5934 5934 5935 5935 5935 5935 5935 5935 5935 5934 5934 5933 5933 5932 5931 5930 5929 5929 5928 5927 5927
5873 5875 5877 5879 5881 5883 5885 5887 5889 5892 5895 5896 5897 5898 5899 5901 5902 5903 5905 5906 5908 5909 5910 5911 5912 5913 5915 5916 5917 5918 5919 5920 5921 5922 5923 5924 5925 5926 5927 5928 5928 5929 5929 5930 5931 5931 5932 5932 5933 5933 5933 5933 5934 5934 5934 5934 5934 5934 5934 5934 5934 5934 5934 5934 5934 5934 5934 5934 5934 5934 5934 5934 5934 5933 5933 5932 5932 5931 5931 5930 5929 5928 5927 5926 5926
5870 5871 5874 5876 5878 5880 5882 5883 5886 5889 5892 5894 5896 5896 5897 5899 5900 5902 5903 5904 5906 5907 5908 5909 5910 5912 5913 5915 5916 5917 5918 5919 5920 5921 5922 5923 5924 5925 5926 5927 5927 5928 5929 5929 5930 5931 5931 5931 5932 5932 5932 5932 5932 5932 5932 5932 5932 5933 5933 5933 5933 5933 5933 5933 5933 5933 5933 5933 5933 5933 5933 5933 5933 5932 5932 5931 5931 5930 5929 5929 5928 5927 5927 5926 5925
5869 5870 5870 5873 5875 5877 5879 5881 5883 5885 5888 5892 5894 5895 5895 5897 5898 5900 5901 5903 5904 5905 5907 5908 5909 5910 5911 5913 5914 5916 5917 5918 5918 5919 5920 5921 5923 5924 5925 5926 5926 5927 5927 5928 5929 5929 5930 5930 5930 5930 5931 5931 5931 5931 5931 5931 5931 5931 5931 5931 5931 5931 5931 5931 5931 5932 5932 5932 5931 5931 5931 5931 5931 5931 5930 5930 5929 5928 5928 5927 5927 5926 5925 5925 5924
5868 5868 5868 5869 5872 5873 5876 5879 5880 5882 5884 5888 5891 5893 5894 5895 5896 5898 5899 5901 5902 5904 5905 5906 5907 5908 5910 5911 5913 5914 5915 5916 5917 5918 5919 5920 5921 5922 5923 5924 5925 5926 5926 5927 5927 5927 5928 5929 5930 5931 5931 5932 5932 5933 5932 5932 5931 5930 5930 5930 5930 5930 5930 5930 5930 5930 5930 5930 5930 5929 5929 5929 5929 5929 5929 5928 5927 5927 5926 5926 5925 5924 5924 5923 5922
5864 5866 5866 5867 5868 5870 5872 5875 5877 5879 5881 5885 5888 5890 5891 5892 5894 5896 5897 5899 5901 5902 5903 5904 5906 5907 5908 5909 5911 5912 5913 5914 5915 5916 5917 5918 5920 5921 5922 5923 5923 5924 5925 5925 5926 5926 5927 5929 5931 5931 5931 5932 5932 5933 5932 5931 5931 5930 5930 5929 5929 5929 5929 5928 5928 5928 5928 5928 5928 5927 5927 5927 5926 5926 5926 5926 5926 5925 5925 5924 5924 5923 5922 5922 5921
5861 5862 5863 5865 5867 5867 5867 5870 5873 5875 5878 5881 5884 5887 5889 5891 5892 5894 5895 5896 5898 5900 5901 5903 5904 5905 5906 5907 5909 5910 5911 5912 5913 5914 5916 5917 5918 5919 5920 5921 5922 5923 5923 5923 5924 5925 5926 5928 5929 5928 5928 5928 5929 5928 5928 5928 5928 5928 5929 5929 5928 5928 5927 5927 5927 5927 5927 5926 5926 5926 5925 5924 5924 5924 5924 5924 5923 5923 5922 5922 5922 5921 5921 5920 5920
5858 5858 5859 5861 5864 5865 5866 5867 5870 5872 5874 5877 5880 5883 5887 5889 5890 5892 5893 5895 5896 5898 5899 5900 5902 5903 5904 5905 5906 5907 5909 5910 5911 5913 5914 5915 5916 5917 5918 5919 5920 5921 5921 5921 5922 5923 5923 5924 5925 5925 5925 5926 5926 5925 5925 5926 5926 5926 5927 5927 5926 5926 5926 5926 5926 5925 5925 5924 5924 5923 5923 5922 5922 5922 5921 5921 5921 5920 5920 5920 5919 5919 5919 5918 5918
5856 5857 5857 5858 5860 5862 5864 5866 5867 5868 5871 5873 5876 5879 5882 5885 5887 5889 5891 5892 5894 5895 5896 5898 5899 5901 5902 5903 5904 5905 5906 5908 5910 5912 5913 5913 5914 5914 5915 5916 5917 5918 5919 5919 5920 5920 5921 5922 5922 5923 5923 5923 5923 5924 5924 5924 5924 5924 5924 5925 5925 5925 5924 5924 5924 5923 5923 5922 5922 5921 5921 5920 5920 5919 5919 5919 5918 5918 5917 5917 5917 5916 5916 5916 5915
5853 5855 5855 5856 5857 5858 5860 5863 5864 5866 5868 5870 5872 5875 5878 5881 5883 5885 5887 5888 5890 5892 5893 5894 5896 5898 5899 5900 5901 5903 5904 5906 5907 5908 5909 5910 5911 5911 5912 5913 5915 5916 5916 5917 5918 5917 5918 5919 5919 5920 5920 5920 5921 5921 5921 5921 5922 5922 5922 5922 5922 5923 5922 5922 5922 5921 5920 5920 5920 5920 5919 5918 5918 5917 5917 5916 5916 5915 5915 5914 5914 5914 5913 5913 5913
5851 5852 5853 5854 5855 5856 5857 5860 5862 5864 5866 5868 5870 5871 5873 5876 5879 5881 5882 5883 5885 5888 5889 5891 5893 5895 5897 5898 5900 5901 5902 5903 5903 5904 5905 5906 5907 5908 5910 5911 5913 5914 5915 5915 5915 5915 5916 5917 5917 5917 5917 5917 5917 5917 5918 5918 5918 5918 5919 5919 5919 5920 5920 5920 5919 5919 5918 5918 5918 5917 5916 5916 5915 5915 5914 5913 5913 5912 5912 5912 5911 5911 5910 5910 5910
5849 5850 5851 5852 5854 5855 5856 5857 5859 5861 5863 5865 5867 5869 5870 5872 5874 5876 5878 5880 5882 5885 5887 5889 5891 5893 5895 5896 5897 5898 5898 5898 5899 5899 5901 5902 5904 5906 5908 5910 5911 5912 5913 5913 5913 5913 5914 5914 5914 5915 5914 5914 5914 5914 5915 5915 5915 5916 5916 5916 5917 5917 5917 5917 5916 5915 5915 5915 5914 5914 5914 5913 5912 5911 5910 5910 5910 5910 5909 5909 5908 5907 5907 5907 5906
5849 5849 5850 5851 5852 5854 5855 5855 5856 5858 5859 5861 5863 5865 5867 5869 5870 5872 5873 5875 5878 5881 5885 5887 5888 5889 5891 5892 5893 5894 5894 5894 5895 5896 5898 5900 5902 5904 5906 5908 5908 5909 5911 5912 5912 5911 5912 5911 5911 5911 5911 5911 5911 5912 5912 5912 5912 5913 5913 5914 5914 5914 5914 5914 5913 5912 5912 5911 5911 5911 5911 5910 5909 5908 5907 5907 5907 5906 5906 5905 5905 5904 5904 5903 5903
5848 5848 5848 5849 5850 5851 5852 5853 5854 5855 5856 5857 5859 5861 5863 5864 5866 5868 5869 5870 5873 5877 5881 5883 5884 5886 5887 5888 5888 5889 5890 5892 5893 5894 5895 5897 5899 5901 5903 5904 5905 5906 5908 5909 5909 5909 5909 5908 5908 5907 5907 5908 5908 5908 5909 5909 5910 5910 5910 5911 5911 5911 5911 5911 5910 5909 5909 5908 5908 5908 5907 5906 5905 5905 5904 5904 5903 5903 5902 5901 5901 5900 5900 5899 5898
5845 5845 5846 5847 5847 5848 5849 5850 5851 5852 5853 5854 5856 5857 5858 5860 5862 5864 5865 5866 5869 5872 5876 5879 5881 5882 5882 5884 5884 5885 5887 5889 5890 5891 5892 5893 5895 5897 5900 5902 5903 5903 5904 5905 5906 5906 5906 5905 5905 5904 5904 5904 5904 5905 5905 5906 5906 5906 5907 5907 5907 5907 5907 5907 5907 5906 5905 5905 5904 5904 5904 5903 5902 5902 5902 5901 5900 5899 5898 5897 5897 5896 5896 5895 5894
5842 5842 5842 5843 5845 5845 5846 5846 5847 5848 5849 5851 5852 5853 5854 5855 5857 5859 5861 5863 5865 5868 5871 5874 5876 5877 5879 5880 5882 5882 5884 5885 5886 5888 5889 5891 5892 5894 5896 5899 5899 5900 5900 5901 5902 5902 5902 5902 5902 5902 5902 5902 5902 5901 5901 5901 5902 5902 5902 5903 5903 5904 5904 5903 5903 5902 5902 5901 5901 5900 5900 5899 5899 5899 5898 5897 5896 5895 5894 5893 5892 5892 5891 5890 5890
5838 5838 5839 5840 5842 5843 5843 5843 5843 5843 5845 5846 5848 5849 5850 5851 5852 5854 5856 5859 5862 5864 5867 5869 5871 5872 5874 5876 5878 5880 5881 5882 5883 5884 5886 5888 5889 5890 5893 5895 5896 5896 5897 5897 5898 5898 5898 5898 5899 5900 5900 5899 5899 5898 5898 5898 5897 5897 5898 5899 5900 5900 5900 5900 5899 5898 5897 5896 5896 5896 5896 5896 5895 5895 5895 5894 5892 5891 5890 5889 5888 5887 5886 5886 5885
5834 5835 5836 5837 5839 5840 5839 5839 5839 5839 5840 5842 5844 5845 5846 5847 5849 5850 5852 5854 5857 5860 5863 5864 5865 5867 5869 5870 5873 5876 5878 5879 5880 5881 5883 5885 5886 5887 5889 5891 5892 5893 5892 5892 5894 5894 5894 5894 5896 5897 5897 5896 5895 5895 5894 5894 5894 5894 5894 5895 5896 5896 5896 5895 5894 5893 5892 5891 5890 5891 5891 5891 5891 5891 5890 5890 5888 5887 5886 5885 5884 5883 5882 5881 5881
5832 5832 5833 5834 5835 5836 5835 5835 5835 5835 5836 5838 5840 5841 5843 5845 5846 5847 5847 5849 5852 5855 5857 5858 5859 5862 5864 5865 5867 5871 5873 5875 5876 5877 5878 5879 5881 5884 5885 5885 5886 5888 5888 5889 5890 5889 5889 5890 5891 5892 5892 5892 5891 5891 5890 5890 5890 5890 5890 5891 5891 5891 5891 5891 5889 5887 5886 5886 5886 5887 5887 5887 5886 5886 5886 5885 5884 5883 5882 5881 5880 5879 5878 5877 5876
5829 5829 5829 5830 5831 5831 5831 5831 5831 5831 5832 5834 5836 5837 5840 5842 5842 5843 5844 5846 5848 5850 5852 5853 5854 5857 5859 5860 5862 5866 5868 5870 5871 5873 5874 5875 5877 5879 5880 5880 5881 5883 5884 5885 5886 5886 5886 5887 5887 5887 5886 5886 5886 5886 5886 5886 5886 5886 5886 5887 5887 5886 5886 5885 5882 5880 5882 5883 5883 5883 5883 5882 5882 5882 5881 5881 5880 5879 5878 5877 5876 5875 5874 5873 5871
5825 5825 5825 5826 5827 5827 5827 5827 5828 5828 5829 5831 5831 5830 5833 5837 5838 5838 5839 5840 5842 5844 5848 5850 5851 5852 5854 5856 5858 5861 5862 5865 5866 5867 5870 5872 5872 5872 5874 5876 5878 5878 5879 5880 5882 5883 5883 5884 5884 5882 5880 5879 5880 5881 5881 5881 5881 5881 5881 5882 5882 5882 5880 5879 5877 5877 5879 5880 5879 5879 5879 5878 5878 5878 5877 5877 5876 5874 5874 5873 5872 5870 5869 5868 5867
5821 5821 5822 5823 5823 5824 5823 5823 5824 5824 5825 5827 5824 5821 5825 5832 5834 5833 5833 5834 5836 5839 5842 5844 5846 5846 5848 5851 5853 5856 5858 5859 5860 5863 5867 5868 5867 5868 5872 5874 5873 5873 5874 5876 5877 5878 5880 5879 5877 5875 5873 5873 5874 5875 5875 5875 5875 5876 5876 5876 5876 5877 5877 5876 5875 5875 5875 5875 5875 5875 5874 5874 5873 5873 5873 5872 5871 5870 5869 5867 5866 5864 5863 5862 5861
5818 5818 5819 5819 5820 5820 5820 5820 5821 5822 5822 5823 5820 5817 5821 5828 5830 5829 5830 5831 5833 5835 5837 5838 5840 5841 5843 5846 5848 5850 5853 5854 5856 5859 5862 5863 5863 5866 5868 5868 5868 5869 5871 5872 5872 5874 5875 5874 5870 5868 5868 5869 5870 5870 5869 5868 5869 5870 5872 5872 5872 5872 5872 5872 5872 5871 5871 5871 5870 5870 5869 5869 5868 5868 5868 5867 5866 5865 5863 5861 5860 5859 5857 5857 5857
5815 5815 5816 5817 5817 5817 5817 5818 5819 5820 5820 5820 5818 5817 5821 5825 5826 5828 5829 5830 5831 5832 5832 5833 5835 5837 5839 5840 5843 5846 5848 5850 5852 5853 5855 5858 5860 5862 5862 5863 5865 5866 5867 5867 5868 5869 5869 5869 5867 5865 5865 5866 5868 5868 5867 5865 5865 5866 5867 5867 5867 5867 5867 5868 5868 5867 5867 5866 5865 5864 5864 5863 5863 5862 5862 5862 5861 5860 5857 5856 5855 5854 5853 5853 5853
5811 5812 5813 5814 5814 5814 5815 5816 5818 5819 5819 5818 5818 5819 5822 5824 5825 5827 5828 5828 5828 5827 5828 5829 5830 5832 5834 5836 5838 5841 5843 5846 5848 5849 5852 5855 5856 5855 5856 5858 5860 5861 5861 5862 5863 5864 5865 5864 5863 5863 5863 5863 5863 5864 5864 5863 5863 5864 5864 5863 5863 5863 5864 5864 5863 5863 5862 5861 5860 5859 5858 5857 5857 5857 5856 5856 5855 5854 5852 5851 5850 5849 5849 5849 5849
5809 5810 5811 5811 5812 5812 5813 5814 5816 5817 5818 5818 5819 5819 5821 5822 5822 5823 5825 5826 5825 5824 5824 5825 5826 5828 5830 5832 5834 5837 5840 5843 5845 5846 5848 5849 5849 5850 5852 5853 5854 5856 5857 5858 5859 5860 5861 5860 5860 5859 5860 5860 5859 5860 5860 5859 5859 5859 5860 5860 5860 5860 5860 5860 5859 5858 5857 5856 5855 5854 5853 5852 5852 5852 5852 5851 5850 5849 5848 5847 5846 5845 5845 5845 5844
5806 5807 5808 5809 5810 5810 5812 5813 5814 5814 5815 5817 5817 5817 5818 5819 5820 5820 5821 5822 5823 5822 5822 5822 5823 5825 5827 5829 5831 5834 5836 5838 5839 5841 5842 5844 5845 5846 5848 5849 5850 5852 5853 5854 5855 5856 5856 5856 5856 5856 5856 5856 5856 5855 5855 5855 5854 5854 5854 5855 5855 5855 5855 5855 5855 5854 5852 5851 5851 5850 5850 5849 5849 5849 5848 5848 5847 5846 5845 5843 5842 5841 5840 5839 5839
5802 5804 5805 5806 5808 5809 5810 5811 5812 5812 5813 5814 5815 5815 5815 5816 5817 5817 5818 5819 5820 5821 5820 5820 5821 5823 5824 5826 5828 5830 5831 5833 5835 5837 5839 5840 5841 5842 5843 5845 5847 5848 5848 5849 5850 5851 5851 5852 5852 5852 5851 5851 5851 5851 5850 5850 5850 5850 5850 5851 5851 5851 5852 5851 5851 5850 5849 5848 5848 5847 5847 5847 5847 5846 5845 5845 5844 5843 5842 5841 5840 5838 5837 5836 5835
5800 5801 5802 5804 5806 5807 5809 5809 5810 5810 5811 5812 5813 5813 5813 5813 5814 5814 5815 5815 5816 5817 5818 5818 5820 5821 5822 5824 5826 5827 5828 5830 5832 5833 5835 5836 5838 5839 5840 5841 5842 5844 5845 5845 5845 5846 5847 5847 5848 5848 5847 5847 5847 5847 5847 5847 5847 5848 5848 5848 5848 5849 5848 5848 5848 5847 5846 5846 5845 5844 5844 5844 5843 5843 5842 5841 5840 5839 5838 5838 5837 5835 5834 5832 5831
5797 5798 5799 5801 5803 5804 5806 5807 5808 5808 5809 5810 5812 5811 5810 5810 5811 5811 5811 5812 5812 5813 5814 5816 5818 5819 5820 5822 5823 5824 5826 5827 5829 5830 5832 5833 5834 5835 5836 5837 5838 5839 5840 5841 5841 5842 5842 5843 5844 5843 5843 5843 5843 5844 5844 5844 5844 5845 5845 5845 5845 5845 5844 5844 5843 5843 5843 5842 5842 5841 5841 5840 5840 5839 5838 5837 5836 5835 5834 5833 5832 5831 5830 5828 5826
5795 5796 5797 5798 5799 5801 5803 5804 5805 5806 5808 5809 5810 5809 5808 5809 5809 5809 5810 5811 5812 5812 5813 5815 5816 5818 5819 5821 5822 5823 5824 5825 5827 5828 5830 5831 5832 5833 5834 5834 5835 5836 5837 5838 5838 5838 5839 5839 5840 5840 5840 5840 5840 5840 5841 5841 5841 5841 5841 5840 5841 5841 5840 5840 5839 5839 5838 5838 5837 5837 5836 5836 5835 5834 5833 5832 5831 5830 5829 5828 5827 5826 5825 5823 5822